Regional Weather Roundup
Issued by NWS

Home | Current Version | Previous Version | Text Only | Print | Product List | Glossary On
Versions: 1 2 3 4 5 6 7 8 9 10 11 12 13 14 15 16 17 18 19 20 21 22 23 24 25 26 27 28 29 30 31 32 33 34 35 36 37 38 39 40 41 42 43 44 45 46 47 48 49
000
ASUS45 KBOU 230107
RWRCO

WEATHER ROUNDUP FOR COLORADO
NATIONAL WEATHER SERVICE DENVER/BOULDER CO
600 PM MST MON DEC 22 2014

NOTE: "FAIR" INDICATES FEW OR NO CLOUDS BELOW 12000 FEET WITH NO
SIGNIFICANT WEATHER AND/OR OBSTRUCTIONS TO VISIBILITY.

COZ001>005-013-030-031-230200-
...NORTHWEST COLORADO...

CITY           SKY/WX    TMP DP  RH WIND       PRES   REMARKS
CRAIG          LGT SNOW  26  22  84 W5        29.89R FOG     WCI  20
HAYDEN         CLOUDY    23  19  86 W9        29.85  WCI  13
MEEKER         MOCLDY    28  17  63 NW9       29.87R WCI  19
MOUNT WERNER   NOT AVBL
STEAMBOAT SPGS CLOUDY    22  18  85 W3        29.84R
WALDEN         MOCLDY    19  12  73 NW18G24   29.77R WCI   4
$$

COZ006>008-011-230200-
...WEST CENTRAL VALLEYS...

CITY           SKY/WX    TMP DP  RH WIND       PRES   REMARKS
GRAND JUNCTION CLOUDY    36  28  73 N9        29.88R
MONTROSE       CLOUDY    33  31  92 S3        29.86R
EAGLE          MOCLDY    27  21  80 CALM      29.87R
RIFLE          LGT SNOW  30  26  85 W10G17    29.89R FOG     WCI  21
DELTA          MOCLDY    40  24  51 NE10      29.86R
NUCLA          CLOUDY    34  32  93 N6        29.87R WCI  29
$$

COZ017>023-064>068-230200-
...SOUTHWEST COLORADO...

CITY           SKY/WX    TMP DP  RH WIND       PRES   REMARKS
DURANGO        FLURRIES  35  26  69 N17G24    29.77R WCI  25
CORTEZ         MOCLDY    42  27  55 NW17G26   29.81R
PAGOSA SPRINGS CLOUDY    31  31  99 CALM      29.76R
TELLURIDE      CLOUDY    27  16  65 N6G24     29.80F WCI  20
WOLF CREEK PAS LGT SNOW  10  10 100 MISG      29.74R
$$

COZ009-010-012-014-032>034-037-058>063-230200-
...CENTRAL COLORADO...

CITY           SKY/WX    TMP DP  RH WIND       PRES   REMARKS
ASPEN          CLOUDY    24  12  60 NW6       29.79R WCI  17
BUENA VISTA    CLOUDY    24  16  72 W6        29.74S WCI  17
COPPER MTN     CLOUDY    10   3  72 W32G39    29.68R WCI -12
BERTHOUD PASS  NOT AVBL
COTTONWOOD PAS LGT SNOW  21  19  93 CALM      29.72R
GUNNISON       PTCLDY    25  16  68 NW14G22   29.80R WCI  13
KREMMLING      CLOUDY    23  12  63 NW6       29.81S WCI  16
LEADVILLE      LGT SNOW  13   8  81 N21G40    29.73R WCI  -5
MONARCH PASS   CLOUDY    10   7  85 MISG      29.79R
SALIDA         CLOUDY    27  24  88 W3        29.83R
SUNLIGHT       CLOUDY   N/A N/A N/A MISG      29.81R
WILKERSON PASS LGT SNOW  12   9  85 NW10G18   29.70R VSB 3/4 WCI  -1
$$

COZ069>075-230200-
...SAN LUIS VALLEY/SANGRE DE CRISTO MOUNTAINS...

CITY           SKY/WX    TMP DP  RH WIND       PRES   REMARKS
ALAMOSA        PTCLDY    28  16  60 NW12      29.73R WCI  18
LA VETA PASS   PTCLDY    19  12  73 NW8       29.70S WCI   9
SAGUACHE       PTCLDY    28  14  54 N14G25    29.74R WCI  17
$$

COZ035-036-038>040-230200-
...NORTHERN COLORADO FRONT RANGE...

CITY           SKY/WX    TMP DP  RH WIND       PRES   REMARKS
DENVER INTL AP CLOUDY    31  21  66 N17       29.75R WCI  19
DMNS CITY PARK   N/A     31  24  76 W6        29.77R WCI  26
AURORA         MOCLDY    29  21  71 N10       29.77R WCI  20
FRONT RANGE AP NOT AVBL
ERIE MUNI ARPT   N/A     30  24  79 SW5       29.76R WCI  25
BOULDER MUN AP CLOUDY    32  28  86 S3        29.76R
CENTENNIAL     CLOUDY    28  24  85 W8        29.76R WCI  20
BROOMFIELD     CLOUDY    32  27  80 NW6       29.76R WCI  26
FORT COLLINS   MOCLDY    32  18  55 NW18      29.78R WCI  20
LONGMONT       MOCLDY    34  15  46 NW3       29.78R
$$

COZ041-046-047-076>085-087-088-230200-
...PIKES PEAK/PALMER DIVIDE AND SOUTHERN FOOTHILLS...

CITY           SKY/WX    TMP DP  RH WIND       PRES   REMARKS
COLO. SPRINGS  LGT SNOW  28  22  78 N12G22    29.76S WCI  18
A. F. ACADEMY  LGT SNOW  25  23  91 N13       29.76R FOG     WCI  14
ELLICOTT       NOT AVBL
FALCON         LGT SNOW  25  20  83 N17G26    29.74S WCI  11
FORT CARSON    FLURRIES  27  26  95 N8        29.76F WCI  19
LIMON          CLOUDY    28  25  88 W15       29.73R WCI  16
MONUMENT HILL  CLOUDY    23  19  86 N13       29.73R WCI  11
TRINIDAD       CLOUDY    25  24  96 SW3       29.73R
$$

COZ042>045-048>051-090-091-230200-
...NORTHEAST COLORADO...

CITY           SKY/WX    TMP DP  RH WIND       PRES   REMARKS
GREELEY ARPT   MOCLDY    34  14  44 N17G25    29.76R WCI  23
AKRON          CLOUDY    31  23  72 NW14      29.72R WCI  21
BURLINGTON     PTCLDY    32  26  78 W13       29.69R WCI  22
WRAY           PTCLDY    35  28  76 W14       29.68S WCI  25
STERLING       CLOUDY    34  28  80 NW16      29.71S WCI  23
HOLYOKE        PTCLDY    34  28  80 W16G22    29.66R WCI  23
FORT MORGAN    CLOUDY    30  22  74 NW8       29.74R WCI  22
$$

COZ086-089-092>099-230200-
...SOUTHEAST COLORADO...

CITY           SKY/WX    TMP DP  RH WIND       PRES   REMARKS
PUEBLO         FLURRIES  32  30  92 NE6       29.79R WCI  26
LA JUNTA       CLOUDY    33  31  92 W12       29.76R WCI  24
LAMAR          CLOUDY    38  28  67 W10       29.73R
SPRINGFIELD      N/A     35  29  78 NW15G21   29.73R WCI  25
$$


USA.gov is the U.S. government's official web portal to all federal, state and local government web resources and services.